Powrót do katalogu

STARLINK-11257

AktywnyŁącznośćVLEO
NORAD 61201·PAYLOAD·🇺🇸 United States

Wystrzelony Sep 20, 2024 z Vandenberg Space Force Base

Loading…

Następne Przeloty (najbliższe 24 godziny)

TLE

ŚwieżeSource: CelesTrak SupGP

Epoka: Sep 15, 2026, 03:00 UTC

1 61201C 24171B   26258.12548611  .00039707  00000+0  32697-3 0  2589
2 61201  53.1566 322.5436 0001197  86.9911 141.4644 15.69697307    13

Śledź STARLINK-11257 w czasie rzeczywistym z AllMySat

Download on the App Store